Location: Champignolles
(47.0543°N, 4.5663°E)
Time: 23:30:26
(UTC+00:00)

N. Korean satellite - Pass Details

Date: 12 December 2021
Orbit: 447 x 491 km, 97.3° (Epoch: 21 January)

Event Time Altitude Azimuth Distance (km) Brightness Sun altitude
Rises 05:41:16 0° 2° (N) 2,462 10.0 -15.7°
Enters shadow 05:43:23 10° 352° (N) 1,609 8.9 -15.4°
Exits shadow 05:48:34 15° 237° (WSW) 1,283 8.3 -14.6°
Drops below altitude 10° 05:49:24 10° 229° (SW) 1,580 8.9 -14.4°
Sets 05:51:35 0° 218° (SW) 2,452 9.9 -14.1°
